Location: Moscow
(55.7500°N, 37.5830°E)
Time: 16:22:20
(UTC+03:00)

Transit 2A - Pass Details

Date: 09 December 2021
Orbit: 591 x 967 km, 66.7° (Epoch: 17 January)

Event Time Altitude Azimuth Distance (km) Brightness Sun altitude
Rises 02:17:24 0° 263° (W) 3,489 - -50.8°
Reaches altitude 10° 02:20:02 10° 272° (W) 2,598 - -50.5°
Maximum altitude 02:25:42 38° 339° (NNW) 1,426 - -49.9°
Exits shadow 02:31:07 12° 44° (NE) 2,557 9.1 -49.4°
Drops below altitude 10° 02:31:37 10° 47° (NE) 2,715 9.3 -49.3°
Sets 02:34:26 0° 55° (NE) 3,665 10.2 -49.0°
